Time,TemperatureF,DewpointF,PressureIn,WindDirection,WindDirectionDegrees,WindSpeedMPH,WindSpeedGustMPH,Humidity,HourlyPrecipIn,Conditions,Clouds,dailyrainin,SoftwareType,DateUTC
2013-09-27 00:02:00,67.2,65.1,29.84,NE,46,2.0,2.0,93,0.00,,,0.00,Wunderground v.1.15,2013-09-27 05:02:00,
2013-09-27 00:07:00,67.5,65.4,29.84,NE,48,2.0,2.0,93,0.00,,,0.00,Wunderground v.1.15,2013-09-27 05:07:00,
2013-09-27 00:17:00,68.0,65.3,29.84,NE,48,1.0,2.0,91,0.00,,,0.00,Wunderground v.1.15,2013-09-27 05:17:00,
2013-09-27 00:22:00,68.0,65.3,29.84,NE,48,1.0,1.0,91,0.00,,,0.00,Wunderground v.1.15,2013-09-27 05:22:00,
2013-09-27 00:27:00,67.9,65.2,29.84,NE,48,0.0,1.0,91,0.00,,,0.00,Wunderground v.1.15,2013-09-27 05:27:00,
2013-09-27 00:37:00,67.6,64.9,29.84,NE,48,1.0,3.0,91,0.00,,,0.00,Wunderground v.1.15,2013-09-27 05:37:00,
2013-09-27 00:42:00,67.4,64.7,29.84,NE,48,1.0,3.0,91,0.00,,,0.00,Wunderground v.1.15,2013-09-27 05:42:00,
2013-09-27 00:47:00,67.3,64.6,29.84,NE,48,1.0,3.0,91,0.00,,,0.00,Wunderground v.1.15,2013-09-27 05:47:00,
2013-09-27 00:52:00,67.2,64.5,29.84,NE,48,1.0,3.0,91,0.00,,,0.00,Wunderground v.1.15,2013-09-27 05:52:00,
2013-09-27 00:57:00,67.1,64.7,29.84,NE,48,1.0,3.0,92,0.00,,,0.00,Wunderground v.1.15,2013-09-27 05:57:00,
2013-09-27 01:02:00,67.0,64.6,29.84,NE,48,0.0,3.0,92,0.00,,,0.00,Wunderground v.1.15,2013-09-27 06:02:00,
2013-09-27 01:07:00,66.9,64.5,29.84,NE,48,0.0,3.0,92,0.00,,,0.00,Wunderground v.1.15,2013-09-27 06:07:00,
2013-09-27 01:12:00,66.8,64.4,29.84,NE,48,0.0,3.0,92,0.00,,,0.00,Wunderground v.1.15,2013-09-27 06:12:00,
2013-09-27 01:17:00,66.6,64.2,29.84,NE,48,0.0,3.0,92,0.00,,,0.00,Wunderground v.1.15,2013-09-27 06:17:00,
2013-09-27 01:22:00,66.5,64.1,29.84,NE,48,0.0,3.0,92,0.00,,,0.00,Wunderground v.1.15,2013-09-27 06:22:00,
2013-09-27 01:27:00,66.3,63.9,29.83,NE,48,0.0,3.0,92,0.00,,,0.00,Wunderground v.1.15,2013-09-27 06:27:00,
2013-09-27 01:32:00,66.1,63.7,29.83,NE,48,0.0,3.0,92,0.00,,,0.00,Wunderground v.1.15,2013-09-27 06:32:00,
2013-09-27 01:42:00,65.9,63.8,29.83,NE,48,0.0,3.0,93,0.00,,,0.00,Wunderground v.1.15,2013-09-27 06:42:00,
2013-09-27 01:47:00,65.9,63.8,29.83,NE,48,1.0,3.0,93,0.00,,,0.00,Wunderground v.1.15,2013-09-27 06:47:00,
2013-09-27 01:52:00,66.0,63.9,29.83,NE,49,1.0,3.0,93,0.00,,,0.00,Wunderground v.1.15,2013-09-27 06:52:00,
2013-09-27 01:57:00,66.3,64.5,29.83,NE,56,1.0,3.0,94,0.00,,,0.00,Wunderground v.1.15,2013-09-27 06:57:00,
2013-09-27 02:02:00,66.9,65.1,29.83,NE,56,1.0,1.0,94,0.00,,,0.00,Wunderground v.1.15,2013-09-27 07:02:00,
2013-09-27 02:07:00,67.0,65.2,29.83,NE,55,1.0,3.0,94,0.00,,,0.00,Wunderground v.1.15,2013-09-27 07:07:00,
2013-09-27 02:17:00,67.3,65.5,29.83,NE,55,1.0,3.0,94,0.00,,,0.00,Wunderground v.1.15,2013-09-27 07:17:00,
2013-09-27 02:22:00,67.2,65.4,29.83,ENE,69,1.0,3.0,94,0.00,,,0.00,Wunderground v.1.15,2013-09-27 07:22:00,
2013-09-27 02:27:00,66.9,65.1,29.83,ENE,68,1.0,3.0,94,0.00,,,0.00,Wunderground v.1.15,2013-09-27 07:27:00,
2013-09-27 02:32:00,66.5,64.4,29.83,ENE,68,0.0,3.0,93,0.00,,,0.00,Wunderground v.1.15,2013-09-27 07:32:00,
2013-09-27 02:37:00,66.0,63.9,29.83,ENE,69,0.0,3.0,93,0.00,,,0.00,Wunderground v.1.15,2013-09-27 07:37:00,
2013-09-27 02:42:00,65.8,63.7,29.83,ENE,68,0.0,3.0,93,0.00,,,0.00,Wunderground v.1.15,2013-09-27 07:42:00,
2013-09-27 02:47:00,65.7,63.6,29.83,ENE,69,0.0,3.0,93,0.00,,,0.00,Wunderground v.1.15,2013-09-27 07:47:00,
2013-09-27 02:52:00,65.6,63.5,29.83,ENE,69,0.0,3.0,93,0.00,,,0.00,Wunderground v.1.15,2013-09-27 07:52:00,
2013-09-27 02:57:00,65.5,63.7,29.83,ENE,69,0.0,3.0,94,0.00,,,0.00,Wunderground v.1.15,2013-09-27 07:57:00,
2013-09-27 03:02:00,65.6,63.8,29.83,ENE,68,0.0,3.0,94,0.00,,,0.00,Wunderground v.1.15,2013-09-27 08:02:00,
2013-09-27 03:07:00,66.0,64.2,29.83,ENE,69,1.0,3.0,94,0.00,,,0.00,Wunderground v.1.15,2013-09-27 08:07:00,
2013-09-27 03:12:00,66.5,65.0,29.83,ENE,68,1.0,3.0,95,0.00,,,0.00,Wunderground v.1.15,2013-09-27 08:12:00,
2013-09-27 03:17:00,67.0,65.5,29.83,NE,56,1.0,3.0,95,0.00,,,0.00,Wunderground v.1.15,2013-09-27 08:17:00,
2013-09-27 03:22:00,67.3,65.8,29.83,NE,56,1.0,3.0,95,0.00,,,0.00,Wunderground v.1.15,2013-09-27 08:22:00,
2013-09-27 03:27:00,67.5,66.0,29.83,NE,56,1.0,3.0,95,0.00,,,0.00,Wunderground v.1.15,2013-09-27 08:27:00,
2013-09-27 03:32:00,67.6,66.1,29.83,NE,56,1.0,3.0,95,0.00,,,0.00,Wunderground v.1.15,2013-09-27 08:32:00,
2013-09-27 03:37:00,67.5,66.0,29.83,ENE,63,1.0,4.0,95,0.00,,,0.00,Wunderground v.1.15,2013-09-27 08:37:00,
2013-09-27 03:42:00,67.5,66.0,29.83,ENE,63,1.0,1.0,95,0.00,,,0.00,Wunderground v.1.15,2013-09-27 08:42:00,
2013-09-27 03:47:00,67.5,66.0,29.83,ENE,63,1.0,3.0,95,0.00,,,0.00,Wunderground v.1.15,2013-09-27 08:47:00,
2013-09-27 03:52:00,67.2,65.4,29.83,ENE,63,0.0,3.0,94,0.00,,,0.00,Wunderground v.1.15,2013-09-27 08:52:00,
2013-09-27 03:57:00,66.7,64.9,29.83,ENE,63,0.0,3.0,94,0.00,,,0.00,Wunderground v.1.15,2013-09-27 08:57:00,
2013-09-27 04:02:00,66.4,64.6,29.83,ENE,63,0.0,3.0,94,0.00,,,0.00,Wunderground v.1.15,2013-09-27 09:02:00,
2013-09-27 04:07:00,66.3,64.5,29.83,ENE,63,0.0,3.0,94,0.00,,,0.00,Wunderground v.1.15,2013-09-27 09:07:00,
2013-09-27 04:12:00,66.3,64.5,29.83,ENE,63,0.0,3.0,94,0.00,,,0.00,Wunderground v.1.15,2013-09-27 09:12:00,
2013-09-27 04:17:00,66.3,64.8,29.83,ENE,63,0.0,3.0,95,0.00,,,0.00,Wunderground v.1.15,2013-09-27 09:17:00,
2013-09-27 04:22:00,66.5,65.0,29.83,ENE,63,1.0,1.0,95,0.00,,,0.00,Wunderground v.1.15,2013-09-27 09:22:00,
2013-09-27 04:27:00,66.5,65.0,29.84,ENE,63,0.0,3.0,95,0.00,,,0.00,Wunderground v.1.15,2013-09-27 09:27:00,
2013-09-27 04:32:00,66.5,65.0,29.84,ENE,63,0.0,3.0,95,0.00,,,0.00,Wunderground v.1.15,2013-09-27 09:32:00,
2013-09-27 04:37:00,66.4,64.9,29.84,ENE,63,0.0,3.0,95,0.00,,,0.00,Wunderground v.1.15,2013-09-27 09:37:00,
2013-09-27 04:42:00,66.7,65.2,29.84,ENE,63,1.0,1.0,95,0.00,,,0.00,Wunderground v.1.15,2013-09-27 09:42:00,
2013-09-27 04:47:00,66.7,65.2,29.84,ENE,63,1.0,3.0,95,0.00,,,0.00,Wunderground v.1.15,2013-09-27 09:47:00,
2013-09-27 04:52:00,67.0,65.5,29.84,ENE,59,1.0,3.0,95,0.00,,,0.00,Wunderground v.1.15,2013-09-27 09:52:00,
2013-09-27 04:57:00,67.3,65.8,29.84,NE,53,1.0,3.0,95,0.00,,,0.00,Wunderground v.1.15,2013-09-27 09:57:00,
2013-09-27 05:02:00,67.4,65.9,29.84,NE,53,1.0,3.0,95,0.00,,,0.00,Wunderground v.1.15,2013-09-27 10:02:00,
2013-09-27 05:07:00,67.5,66.0,29.84,NE,53,2.0,3.0,95,0.00,,,0.00,Wunderground v.1.15,2013-09-27 10:07:00,
2013-09-27 05:17:00,67.6,66.1,29.84,NE,55,1.0,1.0,95,0.00,,,0.00,Wunderground v.1.15,2013-09-27 10:17:00,
2013-09-27 05:22:00,67.5,66.0,29.84,NE,54,1.0,1.0,95,0.00,,,0.00,Wunderground v.1.15,2013-09-27 10:22:00,
2013-09-27 05:27:00,67.5,66.0,29.85,NE,53,1.0,1.0,95,0.00,,,0.00,Wunderground v.1.15,2013-09-27 10:27:00,
2013-09-27 05:32:00,67.5,66.0,29.85,NE,53,1.0,1.0,95,0.00,,,0.00,Wunderground v.1.15,2013-09-27 10:32:00,
2013-09-27 05:37:00,67.4,65.9,29.85,NE,51,1.0,2.0,95,0.00,,,0.00,Wunderground v.1.15,2013-09-27 10:37:00,
2013-09-27 05:42:00,67.2,65.7,29.86,NE,54,1.0,2.0,95,0.00,,,0.00,Wunderground v.1.15,2013-09-27 10:42:00,
2013-09-27 05:47:00,67.1,65.6,29.86,NE,53,1.0,2.0,95,0.00,,,0.00,Wunderground v.1.15,2013-09-27 10:47:00,
2013-09-27 05:57:00,67.3,65.8,29.86,NE,51,1.0,2.0,95,0.00,,,0.00,Wunderground v.1.15,2013-09-27 10:57:00,
2013-09-27 06:02:00,67.3,65.8,29.86,NE,49,2.0,2.0,95,0.00,,,0.00,Wunderground v.1.15,2013-09-27 11:02:00,
2013-09-27 06:07:00,67.4,65.9,29.86,NE,49,2.0,2.0,95,0.00,,,0.00,Wunderground v.1.15,2013-09-27 11:07:00,
2013-09-27 06:12:00,67.3,65.8,29.87,NE,49,1.0,2.0,95,0.00,,,0.00,Wunderground v.1.15,2013-09-27 11:12:00,
2013-09-27 06:17:00,67.2,65.7,29.87,NE,49,1.0,2.0,95,0.00,,,0.00,Wunderground v.1.15,2013-09-27 11:17:00,
2013-09-27 06:22:00,67.2,65.7,29.87,NE,49,1.0,2.0,95,0.00,,,0.00,Wunderground v.1.15,2013-09-27 11:22:00,
2013-09-27 06:27:00,67.2,65.7,29.87,NE,49,1.0,2.0,95,0.00,,,0.00,Wunderground v.1.15,2013-09-27 11:27:00,
2013-09-27 06:32:00,67.2,65.7,29.87,NE,48,1.0,2.0,95,0.00,,,0.00,Wunderground v.1.15,2013-09-27 11:32:00,
2013-09-27 06:37:00,67.2,65.7,29.87,NE,48,1.0,2.0,95,0.00,,,0.00,Wunderground v.1.15,2013-09-27 11:37:00,
2013-09-27 06:42:00,67.2,65.7,29.88,NE,48,1.0,2.0,95,0.00,,,0.00,Wunderground v.1.15,2013-09-27 11:42:00,
2013-09-27 06:47:00,67.1,65.6,29.88,NE,47,1.0,2.0,95,0.00,,,0.00,Wunderground v.1.15,2013-09-27 11:47:00,
2013-09-27 06:52:00,67.1,65.6,29.88,NE,47,1.0,2.0,95,0.00,,,0.00,Wunderground v.1.15,2013-09-27 11:52:00,
2013-09-27 06:57:00,67.0,65.5,29.88,NE,47,1.0,2.0,95,0.00,,,0.00,Wunderground v.1.15,2013-09-27 11:57:00,
2013-09-27 07:07:00,66.9,65.4,29.88,NE,47,1.0,2.0,95,0.00,,,0.00,Wunderground v.1.15,2013-09-27 12:07:00,
2013-09-27 07:12:00,66.9,65.4,29.89,NE,47,1.0,2.0,95,0.00,,,0.00,Wunderground v.1.15,2013-09-27 12:12:00,
2013-09-27 07:17:00,66.9,65.4,29.89,NE,46,1.0,2.0,95,0.00,,,0.00,Wunderground v.1.15,2013-09-27 12:17:00,
2013-09-27 07:22:00,66.9,65.4,29.89,NE,49,1.0,2.0,95,0.00,,,0.00,Wunderground v.1.15,2013-09-27 12:22:00,
2013-09-27 07:27:00,67.0,65.5,29.89,NE,48,1.0,2.0,95,0.00,,,0.00,Wunderground v.1.15,2013-09-27 12:27:00,
2013-09-27 07:32:00,67.1,65.9,29.89,NE,51,1.0,2.0,96,0.00,,,0.00,Wunderground v.1.15,2013-09-27 12:32:00,
2013-09-27 07:37:00,67.3,65.8,29.89,NE,46,2.0,2.0,95,0.00,,,0.00,Wunderground v.1.15,2013-09-27 12:37:00,
2013-09-27 07:42:00,67.4,65.9,29.90,NE,52,2.0,2.0,95,0.00,,,0.00,Wunderground v.1.15,2013-09-27 12:42:00,
2013-09-27 07:47:00,67.5,66.0,29.90,NE,35,1.0,2.0,95,0.00,,,0.00,Wunderground v.1.15,2013-09-27 12:47:00,
2013-09-27 07:52:00,67.6,66.4,29.90,ENE,58,2.0,2.0,96,0.00,,,0.00,Wunderground v.1.15,2013-09-27 12:52:00,
2013-09-27 07:57:00,67.8,66.6,29.91,NE,42,2.0,2.0,96,0.00,,,0.00,Wunderground v.1.15,2013-09-27 12:57:00,
2013-09-27 08:02:00,67.9,66.7,29.91,NE,37,2.0,2.0,96,0.00,,,0.00,Wunderground v.1.15,2013-09-27 13:02:00,
2013-09-27 08:07:00,68.1,66.9,29.91,NNE,32,2.0,2.0,96,0.00,,,0.00,Wunderground v.1.15,2013-09-27 13:07:00,
2013-09-27 08:12:00,68.3,67.1,29.91,NE,48,2.0,2.0,96,0.00,,,0.00,Wunderground v.1.15,2013-09-27 13:12:00,
2013-09-27 08:17:00,68.5,67.3,29.91,ENE,59,1.0,2.0,96,0.00,,,0.00,Wunderground v.1.15,2013-09-27 13:17:00,
2013-09-27 08:22:00,68.6,67.4,29.91,NE,46,1.0,2.0,96,0.00,,,0.00,Wunderground v.1.15,2013-09-27 13:22:00,
2013-09-27 08:27:00,68.9,67.7,29.91,NNE,16,1.0,2.0,96,0.00,,,0.00,Wunderground v.1.15,2013-09-27 13:27:00,
2013-09-27 08:32:00,69.1,67.9,29.91,East,101,2.0,2.0,96,0.00,,,0.00,Wunderground v.1.15,2013-09-27 13:32:00,
2013-09-27 08:37:00,69.2,68.0,29.91,NNE,30,3.0,3.0,96,0.00,,,0.00,Wunderground v.1.15,2013-09-27 13:37:00,
2013-09-27 08:42:00,69.5,68.3,29.91,ENE,58,2.0,2.0,96,0.00,,,0.00,Wunderground v.1.15,2013-09-27 13:42:00,
2013-09-27 08:47:00,69.7,68.5,29.91,NNE,29,2.0,2.0,96,0.00,,,0.00,Wunderground v.1.15,2013-09-27 13:47:00,
2013-09-27 08:52:00,70.1,68.6,29.91,NE,46,2.0,2.0,95,0.00,,,0.00,Wunderground v.1.15,2013-09-27 13:52:00,
2013-09-27 08:57:00,70.3,68.8,29.92,NE,45,2.0,4.0,95,0.00,,,0.00,Wunderground v.1.15,2013-09-27 13:57:00,
2013-09-27 09:02:00,70.6,68.8,29.92,ENE,63,2.0,3.0,94,0.00,,,0.00,Wunderground v.1.15,2013-09-27 14:02:00,
2013-09-27 09:07:00,70.9,68.8,29.92,ENE,64,2.0,3.0,93,0.00,,,0.00,Wunderground v.1.15,2013-09-27 14:07:00,
2013-09-27 09:12:00,71.3,68.9,29.92,NE,42,2.0,3.0,92,0.00,,,0.00,Wunderground v.1.15,2013-09-27 14:12:00,
2013-09-27 09:17:00,71.6,68.8,29.92,NE,49,2.0,4.0,91,0.00,,,0.00,Wunderground v.1.15,2013-09-27 14:17:00,
2013-09-27 09:22:00,72.1,69.0,29.92,NE,50,2.0,3.0,90,0.00,,,0.00,Wunderground v.1.15,2013-09-27 14:22:00,
2013-09-27 09:27:00,72.4,69.0,29.92,NE,45,2.0,3.0,89,0.00,,,0.00,Wunderground v.1.15,2013-09-27 14:27:00,
2013-09-27 09:32:00,73.0,69.2,29.92,ESE,121,2.0,2.0,88,0.00,,,0.00,Wunderground v.1.15,2013-09-27 14:32:00,
2013-09-27 09:37:00,73.4,69.6,29.92,SSE,162,1.0,2.0,88,0.00,,,0.00,Wunderground v.1.15,2013-09-27 14:37:00,
2013-09-27 09:42:00,74.0,69.5,29.92,NE,53,2.0,2.0,86,0.00,,,0.00,Wunderground v.1.15,2013-09-27 14:42:00,
2013-09-27 09:47:00,74.4,69.6,29.92,NE,53,3.0,3.0,85,0.00,,,0.00,Wunderground v.1.15,2013-09-27 14:47:00,
2013-09-27 09:52:00,74.7,69.9,29.92,ESE,106,3.0,3.0,85,0.00,,,0.00,Wunderground v.1.15,2013-09-27 14:52:00,
2013-09-27 09:57:00,75.3,70.1,29.92,ENE,65,2.0,3.0,84,0.00,,,0.00,Wunderground v.1.15,2013-09-27 14:57:00,
2013-09-27 10:02:00,76.0,70.5,29.92,NE,53,2.0,2.0,83,0.00,,,0.00,Wunderground v.1.15,2013-09-27 15:02:00,
2013-09-27 10:07:00,76.4,70.1,29.92,NNE,18,2.0,2.0,81,0.00,,,0.00,Wunderground v.1.15,2013-09-27 15:07:00,
2013-09-27 10:12:00,76.7,70.4,29.92,NNE,32,3.0,3.0,81,0.00,,,0.00,Wunderground v.1.15,2013-09-27 15:12:00,
2013-09-27 10:17:00,77.2,70.9,29.92,NE,48,2.0,3.0,81,0.00,,,0.00,Wunderground v.1.15,2013-09-27 15:17:00,
2013-09-27 10:27:00,78.3,71.2,29.92,NW,325,3.0,3.0,79,0.00,,,0.00,Wunderground v.1.15,2013-09-27 15:27:00,
2013-09-27 10:32:00,78.7,70.5,29.92,NE,46,3.0,4.0,76,0.00,,,0.00,Wunderground v.1.15,2013-09-27 15:32:00,
2013-09-27 10:37:00,78.6,70.0,29.92,NE,44,3.0,4.0,75,0.00,,,0.00,Wunderground v.1.15,2013-09-27 15:37:00,
2013-09-27 10:42:00,79.0,70.8,29.92,NE,42,3.0,3.0,76,0.00,,,0.00,Wunderground v.1.15,2013-09-27 15:42:00,
2013-09-27 10:47:00,79.6,70.6,29.92,ENE,60,2.0,3.0,74,0.00,,,0.00,Wunderground v.1.15,2013-09-27 15:47:00,
2013-09-27 10:52:00,80.2,71.6,29.92,NNE,26,2.0,2.0,75,0.00,,,0.00,Wunderground v.1.15,2013-09-27 15:52:00,
2013-09-27 10:57:00,80.9,71.4,29.92,NE,53,2.0,3.0,73,0.00,,,0.00,Wunderground v.1.15,2013-09-27 15:57:00,
2013-09-27 11:02:00,81.6,71.3,29.92,NE,42,2.0,4.0,71,0.00,,,0.00,Wunderground v.1.15,2013-09-27 16:02:00,
2013-09-27 11:07:00,81.8,70.6,29.92,NE,38,3.0,6.0,69,0.00,,,0.00,Wunderground v.1.15,2013-09-27 16:07:00,
2013-09-27 11:12:00,81.4,70.7,29.91,East,84,3.0,3.0,70,0.00,,,0.00,Wunderground v.1.15,2013-09-27 16:12:00,
2013-09-27 11:17:00,81.8,70.6,29.91,NE,42,3.0,5.0,69,0.00,,,0.00,Wunderground v.1.15,2013-09-27 16:17:00,
2013-09-27 11:22:00,81.8,70.6,29.91,NE,37,2.0,5.0,69,0.00,,,0.00,Wunderground v.1.15,2013-09-27 16:22:00,
2013-09-27 11:27:00,82.1,71.3,29.91,NE,46,2.0,5.0,70,0.00,,,0.00,Wunderground v.1.15,2013-09-27 16:27:00,
2013-09-27 11:32:00,83.0,70.9,29.91,NNE,18,2.0,3.0,67,0.00,,,0.00,Wunderground v.1.15,2013-09-27 16:32:00,
2013-09-27 11:37:00,83.4,70.4,29.91,NE,41,2.0,3.0,65,0.00,,,0.00,Wunderground v.1.15,2013-09-27 16:37:00,
2013-09-27 11:42:00,83.2,70.2,29.91,NE,53,3.0,3.0,65,0.00,,,0.00,Wunderground v.1.15,2013-09-27 16:42:00,
2013-09-27 11:47:00,83.7,70.7,29.91,SSE,156,2.0,3.0,65,0.00,,,0.00,Wunderground v.1.15,2013-09-27 16:47:00,
2013-09-27 11:52:00,84.7,70.7,29.91,ENE,57,2.0,3.0,63,0.00,,,0.00,Wunderground v.1.15,2013-09-27 16:52:00,
2013-09-27 11:57:00,84.2,69.8,29.90,SSE,152,2.0,3.0,62,0.00,,,0.00,Wunderground v.1.15,2013-09-27 16:57:00,
2013-09-27 12:02:00,84.6,70.6,29.90,SW,223,2.0,2.0,63,0.00,,,0.00,Wunderground v.1.15,2013-09-27 17:02:00,
2013-09-27 12:07:00,84.7,71.2,29.90,East,80,2.0,3.0,64,0.00,,,0.00,Wunderground v.1.15,2013-09-27 17:07:00,
2013-09-27 12:12:00,84.8,71.3,29.90,ENE,67,2.0,2.0,64,0.00,,,0.00,Wunderground v.1.15,2013-09-27 17:12:00,
2013-09-27 12:17:00,84.4,70.4,29.90,NE,42,1.0,2.0,63,0.00,,,0.00,Wunderground v.1.15,2013-09-27 17:17:00,
2013-09-27 12:22:00,84.0,70.0,29.90,ENE,63,2.0,2.0,63,0.00,,,0.00,Wunderground v.1.15,2013-09-27 17:22:00,
2013-09-27 12:27:00,84.3,69.9,29.89,South,175,2.0,2.0,62,0.00,,,0.00,Wunderground v.1.15,2013-09-27 17:27:00,
2013-09-27 12:32:00,84.5,71.0,29.89,NE,49,2.0,6.0,64,0.00,,,0.00,Wunderground v.1.15,2013-09-27 17:32:00,
2013-09-27 12:37:00,84.7,70.7,29.89,NE,54,3.0,9.0,63,0.00,,,0.00,Wunderground v.1.15,2013-09-27 17:37:00,
2013-09-27 12:42:00,85.3,70.8,29.89,ENE,71,2.0,2.0,62,0.00,,,0.00,Wunderground v.1.15,2013-09-27 17:42:00,
2013-09-27 12:47:00,86.7,71.6,29.89,WNW,286,2.0,2.0,61,0.00,,,0.00,Wunderground v.1.15,2013-09-27 17:47:00,
2013-09-27 12:52:00,87.4,70.8,29.89,SSE,165,2.0,2.0,58,0.00,,,0.00,Wunderground v.1.15,2013-09-27 17:52:00,
2013-09-27 12:57:00,87.1,70.5,29.89,NE,40,3.0,5.0,58,0.00,,,0.00,Wunderground v.1.15,2013-09-27 17:57:00,
2013-09-27 13:02:00,85.9,70.4,29.89,NE,46,4.0,4.0,60,0.00,,,0.00,Wunderground v.1.15,2013-09-27 18:02:00,
2013-09-27 13:07:00,85.3,69.8,29.89,SSE,165,3.0,5.0,60,0.00,,,0.00,Wunderground v.1.15,2013-09-27 18:07:00,
2013-09-27 13:12:00,86.1,70.6,29.89,SSE,159,3.0,3.0,60,0.00,,,0.00,Wunderground v.1.15,2013-09-27 18:12:00,
2013-09-27 13:17:00,86.4,70.9,29.89,SE,132,2.0,3.0,60,0.00,,,0.00,Wunderground v.1.15,2013-09-27 18:17:00,
2013-09-27 13:22:00,86.4,70.9,29.89,ESE,104,2.0,2.0,60,0.00,,,0.00,Wunderground v.1.15,2013-09-27 18:22:00,
2013-09-27 13:27:00,86.6,70.6,29.88,East,86,1.0,2.0,59,0.00,,,0.00,Wunderground v.1.15,2013-09-27 18:27:00,
2013-09-27 13:32:00,86.5,71.0,29.88,SSE,148,2.0,2.0,60,0.00,,,0.00,Wunderground v.1.15,2013-09-27 18:32:00,
2013-09-27 13:37:00,86.3,70.3,29.88,South,172,2.0,2.0,59,0.00,,,0.00,Wunderground v.1.15,2013-09-27 18:37:00,
2013-09-27 13:42:00,85.4,70.4,29.87,NE,56,1.0,2.0,61,0.00,,,0.00,Wunderground v.1.15,2013-09-27 18:42:00,
2013-09-27 13:47:00,84.6,70.6,29.87,NE,40,2.0,3.0,63,0.00,,,0.00,Wunderground v.1.15,2013-09-27 18:47:00,
2013-09-27 13:52:00,83.4,69.9,29.87,NE,50,2.0,2.0,64,0.00,,,0.00,Wunderground v.1.15,2013-09-27 18:52:00,
2013-09-27 13:57:00,82.7,70.6,29.87,ENE,61,2.0,2.0,67,0.00,,,0.00,Wunderground v.1.15,2013-09-27 18:57:00,
2013-09-27 14:02:00,82.6,70.5,29.87,NE,51,1.0,3.0,67,0.00,,,0.00,Wunderground v.1.15,2013-09-27 19:02:00,
2013-09-27 14:07:00,82.6,70.1,29.87,NE,48,2.0,3.0,66,0.00,,,0.00,Wunderground v.1.15,2013-09-27 19:07:00,
2013-09-27 14:12:00,82.5,70.0,29.86,NE,43,2.0,2.0,66,0.00,,,0.00,Wunderground v.1.15,2013-09-27 19:12:00,
2013-09-27 14:17:00,82.4,70.3,29.86,NE,49,2.0,2.0,67,0.00,,,0.00,Wunderground v.1.15,2013-09-27 19:17:00,
2013-09-27 14:22:00,82.3,71.1,29.86,NE,48,1.0,1.0,69,0.00,,,0.00,Wunderground v.1.15,2013-09-27 19:22:00,
2013-09-27 14:27:00,82.5,71.3,29.86,NE,37,1.0,2.0,69,0.00,,,0.00,Wunderground v.1.15,2013-09-27 19:27:00,
2013-09-27 14:32:00,82.4,69.9,29.86,NE,42,1.0,1.0,66,0.00,,,0.00,Wunderground v.1.15,2013-09-27 19:32:00,
2013-09-27 14:37:00,82.3,69.4,29.86,NNE,33,2.0,3.0,65,0.00,,,0.00,Wunderground v.1.15,2013-09-27 19:37:00,
2013-09-27 14:42:00,82.3,69.8,29.86,NNE,22,2.0,2.0,66,0.00,,,0.00,Wunderground v.1.15,2013-09-27 19:42:00,
2013-09-27 14:47:00,82.8,70.7,29.86,NNE,28,1.0,3.0,67,0.00,,,0.00,Wunderground v.1.15,2013-09-27 19:47:00,
2013-09-27 14:52:00,83.6,70.1,29.86,NE,38,1.0,5.0,64,0.00,,,0.00,Wunderground v.1.15,2013-09-27 19:52:00,
2013-09-27 14:57:00,84.3,69.4,29.85,South,177,2.0,5.0,61,0.00,,,0.00,Wunderground v.1.15,2013-09-27 19:57:00,
2013-09-27 15:07:00,85.4,69.9,29.85,NE,50,1.0,2.0,60,0.00,,,0.00,Wunderground v.1.15,2013-09-27 20:07:00,
2013-09-27 15:12:00,86.3,70.3,29.84,ENE,70,1.0,1.0,59,0.00,,,0.00,Wunderground v.1.15,2013-09-27 20:12:00,
2013-09-27 15:17:00,86.7,70.2,29.84,ENE,62,2.0,2.0,58,0.00,,,0.00,Wunderground v.1.15,2013-09-27 20:17:00,
2013-09-27 15:22:00,86.8,70.8,29.84,ENE,61,2.0,6.0,59,0.00,,,0.00,Wunderground v.1.15,2013-09-27 20:22:00,
2013-09-27 15:27:00,86.9,70.3,29.84,NE,56,2.0,6.0,58,0.00,,,0.00,Wunderground v.1.15,2013-09-27 20:27:00,
2013-09-27 15:32:00,86.7,69.6,29.84,NE,46,2.0,2.0,57,0.00,,,0.00,Wunderground v.1.15,2013-09-27 20:32:00,
2013-09-27 15:37:00,86.4,68.8,29.84,NE,37,2.0,6.0,56,0.00,,,0.00,Wunderground v.1.15,2013-09-27 20:37:00,
2013-09-27 15:42:00,85.8,68.3,29.84,NE,51,3.0,6.0,56,0.00,,,0.00,Wunderground v.1.15,2013-09-27 20:42:00,
2013-09-27 15:47:00,85.7,68.2,29.84,NE,49,3.0,6.0,56,0.00,,,0.00,Wunderground v.1.15,2013-09-27 20:47:00,
2013-09-27 15:52:00,85.9,69.4,29.84,ESE,113,2.0,2.0,58,0.00,,,0.00,Wunderground v.1.15,2013-09-27 20:52:00,
2013-09-27 15:57:00,86.3,69.3,29.84,East,88,2.0,6.0,57,0.00,,,0.00,Wunderground v.1.15,2013-09-27 20:57:00,
2013-09-27 16:02:00,86.6,69.6,29.84,NE,36,2.0,6.0,57,0.00,,,0.00,Wunderground v.1.15,2013-09-27 21:02:00,
2013-09-27 16:07:00,86.5,70.5,29.84,NE,56,2.0,6.0,59,0.00,,,0.00,Wunderground v.1.15,2013-09-27 21:07:00,
2013-09-27 16:12:00,86.1,70.1,29.84,East,90,2.0,6.0,59,0.00,,,0.00,Wunderground v.1.15,2013-09-27 21:12:00,
2013-09-27 16:17:00,85.5,70.0,29.84,ENE,75,3.0,6.0,60,0.00,,,0.00,Wunderground v.1.15,2013-09-27 21:17:00,
2013-09-27 16:22:00,84.6,69.7,29.84,NE,48,3.0,3.0,61,0.00,,,0.00,Wunderground v.1.15,2013-09-27 21:22:00,
2013-09-27 16:27:00,84.2,69.8,29.84,ENE,62,3.0,6.0,62,0.00,,,0.00,Wunderground v.1.15,2013-09-27 21:27:00,
2013-09-27 16:32:00,84.1,69.7,29.84,ENE,66,2.0,2.0,62,0.00,,,0.00,Wunderground v.1.15,2013-09-27 21:32:00,
2013-09-27 16:37:00,84.5,69.6,29.84,SSE,159,2.0,6.0,61,0.00,,,0.00,Wunderground v.1.15,2013-09-27 21:37:00,
2013-09-27 16:42:00,84.9,70.4,29.85,East,79,2.0,2.0,62,0.00,,,0.00,Wunderground v.1.15,2013-09-27 21:42:00,
2013-09-27 16:47:00,84.8,70.8,29.85,NNE,25,2.0,6.0,63,0.00,,,0.00,Wunderground v.1.15,2013-09-27 21:47:00,
2013-09-27 16:52:00,84.6,69.2,29.85,SSW,192,2.0,6.0,60,0.00,,,0.00,Wunderground v.1.15,2013-09-27 21:52:00,
2013-09-27 16:57:00,84.5,69.6,29.85,SSE,165,1.0,6.0,61,0.00,,,0.00,Wunderground v.1.15,2013-09-27 21:57:00,
2013-09-27 17:02:00,84.2,69.3,29.85,NE,46,1.0,6.0,61,0.00,,,0.00,Wunderground v.1.15,2013-09-27 22:02:00,
2013-09-27 17:07:00,83.7,69.8,29.85,NE,38,2.0,6.0,63,0.00,,,0.00,Wunderground v.1.15,2013-09-27 22:07:00,
2013-09-27 17:17:00,82.9,69.0,29.85,NE,39,2.0,6.0,63,0.00,,,0.00,Wunderground v.1.15,2013-09-27 22:17:00,
2013-09-27 17:22:00,82.6,69.2,29.85,NE,53,3.0,3.0,64,0.00,,,0.00,Wunderground v.1.15,2013-09-27 22:22:00,
2013-09-27 17:27:00,82.4,69.4,29.85,NE,53,2.0,6.0,65,0.00,,,0.00,Wunderground v.1.15,2013-09-27 22:27:00,
2013-09-27 17:32:00,82.2,69.7,29.85,NE,56,2.0,2.0,66,0.00,,,0.00,Wunderground v.1.15,2013-09-27 22:32:00,
2013-09-27 17:37:00,82.0,69.1,29.85,NE,48,1.0,3.0,65,0.00,,,0.00,Wunderground v.1.15,2013-09-27 22:37:00,
2013-09-27 17:42:00,81.8,68.9,29.85,NE,48,2.0,2.0,65,0.00,,,0.00,Wunderground v.1.15,2013-09-27 22:42:00,
2013-09-27 17:47:00,81.5,69.0,29.85,NE,46,2.0,6.0,66,0.00,,,0.00,Wunderground v.1.15,2013-09-27 22:47:00,
2013-09-27 17:52:00,81.3,69.3,29.85,NE,50,1.0,6.0,67,0.00,,,0.00,Wunderground v.1.15,2013-09-27 22:52:00,
2013-09-27 17:57:00,81.1,69.5,29.85,NE,48,1.0,6.0,68,0.00,,,0.00,Wunderground v.1.15,2013-09-27 22:57:00,
2013-09-27 18:02:00,80.9,70.2,29.85,NE,49,1.0,6.0,70,0.00,,,0.00,Wunderground v.1.15,2013-09-27 23:02:00,
2013-09-27 18:07:00,80.7,70.4,29.85,NE,48,1.0,6.0,71,0.00,,,0.00,Wunderground v.1.15,2013-09-27 23:07:00,
2013-09-27 18:12:00,80.5,70.6,29.86,NE,48,0.0,6.0,72,0.00,,,0.00,Wunderground v.1.15,2013-09-27 23:12:00,
2013-09-27 18:17:00,80.1,70.7,29.86,NE,49,0.0,6.0,73,0.00,,,0.00,Wunderground v.1.15,2013-09-27 23:17:00,
2013-09-27 18:22:00,79.6,70.6,29.86,NE,49,0.0,6.0,74,0.00,,,0.00,Wunderground v.1.15,2013-09-27 23:22:00,
2013-09-27 18:27:00,79.1,70.5,29.86,NE,48,1.0,6.0,75,0.00,,,0.00,Wunderground v.1.15,2013-09-27 23:27:00,
2013-09-27 18:32:00,78.6,70.4,29.86,NE,49,1.0,6.0,76,0.00,,,0.00,Wunderground v.1.15,2013-09-27 23:32:00,
2013-09-27 18:37:00,78.1,69.9,29.86,NE,48,1.0,6.0,76,0.00,,,0.00,Wunderground v.1.15,2013-09-27 23:37:00,
2013-09-27 18:42:00,77.6,69.8,29.86,NE,49,1.0,6.0,77,0.00,,,0.00,Wunderground v.1.15,2013-09-27 23:42:00,
2013-09-27 18:47:00,77.2,70.2,29.86,NE,49,1.0,6.0,79,0.00,,,0.00,Wunderground v.1.15,2013-09-27 23:47:00,
2013-09-27 18:52:00,76.8,70.2,29.86,NE,49,1.0,6.0,80,0.00,,,0.00,Wunderground v.1.15,2013-09-27 23:52:00,
2013-09-27 18:57:00,76.3,70.0,29.87,NE,48,1.0,6.0,81,0.00,,,0.00,Wunderground v.1.15,2013-09-27 23:57:00,
2013-09-27 19:02:00,75.9,69.6,29.87,NE,49,1.0,1.0,81,0.00,,,0.00,Wunderground v.1.15,2013-09-28 00:02:00,
2013-09-27 19:07:00,75.6,69.7,29.87,NE,48,1.0,6.0,82,0.00,,,0.00,Wunderground v.1.15,2013-09-28 00:07:00,
2013-09-27 19:12:00,75.3,69.8,29.87,NE,48,1.0,6.0,83,0.00,,,0.00,Wunderground v.1.15,2013-09-28 00:12:00,
2013-09-27 19:17:00,74.9,69.4,29.87,NE,49,1.0,6.0,83,0.00,,,0.00,Wunderground v.1.15,2013-09-28 00:17:00,
2013-09-27 19:22:00,74.6,69.4,29.87,NE,48,1.0,6.0,84,0.00,,,0.00,Wunderground v.1.15,2013-09-28 00:22:00,
2013-09-27 19:32:00,73.8,69.0,29.87,NE,49,1.0,6.0,85,0.00,,,0.00,Wunderground v.1.15,2013-09-28 00:32:00,
2013-09-27 19:37:00,73.7,68.6,29.87,NE,48,1.0,6.0,84,0.00,,,0.00,Wunderground v.1.15,2013-09-28 00:37:00,
2013-09-27 19:42:00,73.7,68.6,29.88,NE,49,1.0,6.0,84,0.00,,,0.00,Wunderground v.1.15,2013-09-28 00:42:00,
2013-09-27 19:47:00,73.7,68.6,29.88,NE,48,1.0,6.0,84,0.00,,,0.00,Wunderground v.1.15,2013-09-28 00:47:00,
2013-09-27 19:52:00,73.7,68.9,29.88,NE,48,1.0,6.0,85,0.00,,,0.00,Wunderground v.1.15,2013-09-28 00:52:00,
2013-09-27 20:02:00,73.1,68.3,29.88,NE,49,1.0,6.0,85,0.00,,,0.00,Wunderground v.1.15,2013-09-28 01:02:00,
2013-09-27 20:07:00,73.0,68.6,29.88,NE,49,1.0,6.0,86,0.00,,,0.00,Wunderground v.1.15,2013-09-28 01:07:00,
2013-09-27 20:12:00,72.8,68.4,29.88,NE,49,1.0,6.0,86,0.00,,,0.00,Wunderground v.1.15,2013-09-28 01:12:00,
2013-09-27 20:17:00,72.6,68.5,29.88,NE,49,1.0,6.0,87,0.00,,,0.00,Wunderground v.1.15,2013-09-28 01:17:00,
2013-09-27 20:22:00,72.5,68.4,29.88,NE,48,1.0,1.0,87,0.00,,,0.00,Wunderground v.1.15,2013-09-28 01:22:00,
2013-09-27 20:27:00,72.5,68.4,29.89,NE,49,1.0,6.0,87,0.00,,,0.00,Wunderground v.1.15,2013-09-28 01:27:00,
2013-09-27 20:32:00,72.8,68.4,29.89,NE,49,1.0,6.0,86,0.00,,,0.00,Wunderground v.1.15,2013-09-28 01:32:00,
2013-09-27 20:37:00,72.9,68.5,29.89,South,178,1.0,6.0,86,0.00,,,0.00,Wunderground v.1.15,2013-09-28 01:37:00,
2013-09-27 20:42:00,73.0,68.6,29.89,SSE,159,1.0,6.0,86,0.00,,,0.00,Wunderground v.1.15,2013-09-28 01:42:00,
2013-09-27 20:47:00,73.2,68.8,29.89,ESE,107,1.0,6.0,86,0.00,,,0.00,Wunderground v.1.15,2013-09-28 01:47:00,
2013-09-27 20:52:00,73.4,68.6,29.89,East,97,1.0,6.0,85,0.00,,,0.00,Wunderground v.1.15,2013-09-28 01:52:00,
2013-09-27 20:57:00,73.5,68.7,29.90,East,97,1.0,6.0,85,0.00,,,0.00,Wunderground v.1.15,2013-09-28 01:57:00,
2013-09-27 21:02:00,73.6,68.5,29.90,ENE,63,1.0,1.0,84,0.00,,,0.00,Wunderground v.1.15,2013-09-28 02:02:00,
2013-09-27 21:07:00,73.7,68.6,29.90,NE,53,1.0,6.0,84,0.00,,,0.00,Wunderground v.1.15,2013-09-28 02:07:00,
2013-09-27 21:12:00,73.8,68.3,29.91,ENE,61,0.0,6.0,83,0.00,,,0.00,Wunderground v.1.15,2013-09-28 02:12:00,
2013-09-27 21:17:00,73.9,68.4,29.91,East,84,0.0,6.0,83,0.00,,,0.00,Wunderground v.1.15,2013-09-28 02:17:00,
2013-09-27 21:22:00,73.8,68.7,29.91,East,83,0.0,6.0,84,0.00,,,0.00,Wunderground v.1.15,2013-09-28 02:22:00,
2013-09-27 21:27:00,73.8,68.7,29.91,South,182,0.0,6.0,84,0.00,,,0.00,Wunderground v.1.15,2013-09-28 02:27:00,
2013-09-27 21:32:00,73.8,68.7,29.91,South,182,0.0,6.0,84,0.00,,,0.00,Wunderground v.1.15,2013-09-28 02:32:00,
2013-09-27 21:37:00,73.7,68.6,29.91,South,182,0.0,6.0,84,0.00,,,0.00,Wunderground v.1.15,2013-09-28 02:37:00,
2013-09-27 21:42:00,73.5,68.4,29.91,South,182,0.0,6.0,84,0.00,,,0.00,Wunderground v.1.15,2013-09-28 02:42:00,
2013-09-27 21:47:00,73.4,68.6,29.91,South,182,0.0,6.0,85,0.00,,,0.00,Wunderground v.1.15,2013-09-28 02:47:00,
2013-09-27 21:52:00,73.1,68.7,29.91,South,182,1.0,1.0,86,0.00,,,0.00,Wunderground v.1.15,2013-09-28 02:52:00,
2013-09-27 21:57:00,72.8,68.4,29.92,South,182,1.0,6.0,86,0.00,,,0.00,Wunderground v.1.15,2013-09-28 02:57:00,
2013-09-27 22:02:00,72.5,68.4,29.92,South,182,1.0,1.0,87,0.00,,,0.00,Wunderground v.1.15,2013-09-28 03:02:00,
2013-09-27 22:07:00,72.2,68.1,29.92,South,182,1.0,6.0,87,0.00,,,0.00,Wunderground v.1.15,2013-09-28 03:07:00,
2013-09-27 22:12:00,72.0,67.9,29.92,South,182,0.0,6.0,87,0.00,,,0.00,Wunderground v.1.15,2013-09-28 03:12:00,
2013-09-27 22:17:00,71.7,68.0,29.92,South,182,0.0,6.0,88,0.00,,,0.00,Wunderground v.1.15,2013-09-28 03:17:00,
2013-09-27 22:22:00,71.5,67.8,29.92,South,182,1.0,1.0,88,0.00,,,0.00,Wunderground v.1.15,2013-09-28 03:22:00,
2013-09-27 22:27:00,71.3,67.9,29.92,South,182,1.0,6.0,89,0.00,,,0.00,Wunderground v.1.15,2013-09-28 03:27:00,
2013-09-27 22:32:00,71.1,67.7,29.92,South,182,0.0,6.0,89,0.00,,,0.00,Wunderground v.1.15,2013-09-28 03:32:00,
2013-09-27 22:37:00,70.9,67.5,29.92,South,182,0.0,6.0,89,0.00,,,0.00,Wunderground v.1.15,2013-09-28 03:37:00,
2013-09-27 22:42:00,70.7,67.6,29.92,South,182,1.0,1.0,90,0.00,,,0.00,Wunderground v.1.15,2013-09-28 03:42:00,
2013-09-27 22:47:00,70.4,67.3,29.92,South,182,1.0,6.0,90,0.00,,,0.00,Wunderground v.1.15,2013-09-28 03:47:00,
2013-09-27 22:52:00,70.3,67.2,29.92,South,182,1.0,6.0,90,0.00,,,0.00,Wunderground v.1.15,2013-09-28 03:52:00,
2013-09-27 22:57:00,70.1,67.3,29.92,South,182,1.0,6.0,91,0.00,,,0.00,Wunderground v.1.15,2013-09-28 03:57:00,
2013-09-27 23:02:00,69.9,67.2,29.92,South,182,0.0,6.0,91,0.00,,,0.00,Wunderground v.1.15,2013-09-28 04:02:00,
2013-09-27 23:07:00,69.8,67.1,29.92,South,182,0.0,6.0,91,0.00,,,0.00,Wunderground v.1.15,2013-09-28 04:07:00,
2013-09-27 23:12:00,69.7,67.0,29.92,South,182,0.0,6.0,91,0.00,,,0.00,Wunderground v.1.15,2013-09-28 04:12:00,
2013-09-27 23:17:00,69.7,67.0,29.92,South,182,1.0,6.0,91,0.00,,,0.00,Wunderground v.1.15,2013-09-28 04:17:00,
2013-09-27 23:22:00,69.5,66.8,29.92,South,182,1.0,6.0,91,0.00,,,0.00,Wunderground v.1.15,2013-09-28 04:22:00,
2013-09-27 23:27:00,69.4,67.0,29.92,South,182,1.0,6.0,92,0.00,,,0.00,Wunderground v.1.15,2013-09-28 04:27:00,
2013-09-27 23:32:00,69.4,67.0,29.92,South,182,0.0,6.0,92,0.00,,,0.00,Wunderground v.1.15,2013-09-28 04:32:00,
2013-09-27 23:37:00,69.2,66.8,29.92,South,182,0.0,6.0,92,0.00,,,0.00,Wunderground v.1.15,2013-09-28 04:37:00,
2013-09-27 23:42:00,69.1,66.7,29.91,South,182,0.0,6.0,92,0.00,,,0.00,Wunderground v.1.15,2013-09-28 04:42:00,
2013-09-27 23:47:00,69.0,66.6,29.91,South,182,0.0,6.0,92,0.00,,,0.00,Wunderground v.1.15,2013-09-28 04:47:00,
2013-09-27 23:52:00,68.9,66.5,29.91,South,182,0.0,6.0,92,0.00,,,0.00,Wunderground v.1.15,2013-09-28 04:52:00,
2013-09-27 23:57:00,68.8,66.4,29.91,South,182,0.0,6.0,92,0.00,,,0.00,Wunderground v.1.15,2013-09-28 04:57:00,